Weather History for Baraboo, WI

Change the Weather History Date:

Tuesday, September 3, 2013

  Actual Average Record
Temperature  
Mean Temperature 58 °F -  
Max Temperature 74 °F 76 °F 93 °F (1960)
Min Temperature 42 °F 53 °F 35 °F (2001)
Degree Days  
Heating Degree Days 7    
Growing Degree Days 8 (Base 50)    
Moisture  
Dew Point 47 °F    
Average Humidity 68    
Maximum Humidity 95    
Minimum Humidity 36    
Precipitation  
Precipitation 0.00 in - - ()
Sea Level Pressure  
Sea Level Pressure 30.06 in    
Wind  
Wind Speed 2 mph (WSW)    
Max Wind Speed 10 mph    
Max Gust Speed -    
Visibility 9 miles    
Events Fog    
Averages and records for this station are not official NWS values.
T = Trace of Precipitation, MM = Missing Value Source: NWS Daily Summary

Daily Weather History Graph

Daily Weather History Graph

Search for Another Location

Airport:

Trip Planner

Search our weather history database for the weather conditions in past years. The results will help you decide how hot, cold, wet, or windy it might be!

Date:

Astronomy

Sep. 03, 2013 Rise Set
Actual Time 6:25 AM CDT 7:30 PM CDT
Civil Twilight 5:56 AM CDT 7:59 PM CDT
Nautical Twilight 5:20 AM CDT 8:34 PM CDT
Astronomical Twilight 4:44 AM CDT 9:11 PM CDT
Moon 4:37 AM CDT (9/3) 6:18 PM CDT (9/3)
Length of Visible Light 14h 03m
Length of Day
13h 05m
Waning Crescent, 3% of the Moon is Illuminated
Sep 3
Waning Crescent
Sep 5
New
Sep 12
First Quarter
Sep 19
Full
Sep 26
Last Quarter

Hourly Weather History & Observations

Time (CDT) Temp. Dew Point Humidity Pressure Visibility Wind Dir Wind Speed Gust Speed Precip Events Conditions
12:15 AM 50.2 °F 46.9 °F 89% 30.04 in 10.0 mi Calm Calm - N/A   Clear
12:35 AM 49.8 °F 46.8 °F 89% 30.04 in 10.0 mi Calm Calm - N/A   Clear
12:55 AM 48.4 °F 45.3 °F 89% 30.04 in 10.0 mi Calm Calm - N/A   Clear
1:15 AM 48.6 °F 46.0 °F 91% 30.04 in 10.0 mi Calm Calm - N/A   Clear
1:35 AM 48.0 °F 45.5 °F 91% 30.05 in 10.0 mi Calm Calm - N/A   Clear
1:55 AM 48.0 °F 45.7 °F 92% 30.05 in 10.0 mi Calm Calm - N/A   Clear
2:15 AM 47.3 °F 44.8 °F 91% 30.05 in 10.0 mi Calm Calm - N/A   Clear
2:35 AM 46.6 °F 44.2 °F 92% 30.06 in 10.0 mi Calm Calm - N/A   Clear
2:55 AM 48.2 °F 46.2 °F 93% 30.06 in 10.0 mi Calm Calm - N/A   Clear
3:15 AM 45.7 °F 43.9 °F 93% 30.07 in 10.0 mi Calm Calm - N/A   Clear
3:35 AM 46.6 °F 44.8 °F 93% 30.07 in 10.0 mi Calm Calm - N/A   Clear
3:55 AM 47.3 °F 45.7 °F 94% 30.07 in 10.0 mi Calm Calm - N/A   Clear
4:15 AM 44.6 °F 43.0 °F 94% 30.07 in 0.8 mi Calm Calm - N/A   Mist
4:35 AM 44.1 °F 42.6 °F 95% 30.07 in 0.2 mi Calm Calm - N/A Fog Fog
4:55 AM 44.4 °F 42.8 °F 94% 30.07 in 0.5 mi Calm Calm - N/A Fog Fog
5:15 AM 44.4 °F 42.8 °F 94% 30.07 in 10.0 mi Calm Calm - N/A   Clear
5:35 AM 44.1 °F 42.3 °F 93% 30.07 in 10.0 mi Calm Calm - N/A   Clear
5:55 AM 42.6 °F 40.8 °F 93% 30.08 in 7.0 mi Calm Calm - N/A   Clear
6:15 AM 44.1 °F 42.6 °F 95% 30.08 in 10.0 mi Calm Calm - N/A   Clear
6:35 AM 43.5 °F 42.1 °F 95% 30.08 in 3.0 mi Calm Calm - N/A   Clear
6:55 AM 44.4 °F 43.0 °F 95% 30.09 in 0.2 mi Calm Calm - N/A Fog Fog
7:15 AM 45.1 °F 43.7 °F 95% 30.09 in 10.0 mi Calm Calm - N/A   Clear
7:35 AM 47.7 °F 46.0 °F 94% 30.09 in 10.0 mi Calm Calm - N/A   Clear
7:55 AM 49.3 °F 47.3 °F 93% 30.10 in 10.0 mi Calm Calm - N/A   Clear
8:15 AM 52.2 °F 48.4 °F 87% 30.11 in 10.0 mi West 3.5 mph - N/A   Clear
8:35 AM 54.3 °F 48.0 °F 79% 30.11 in 10.0 mi WNW 3.5 mph - N/A   Clear
8:55 AM 56.8 °F 48.0 °F 72% 30.11 in 10.0 mi Calm Calm - N/A   Clear
9:15 AM 58.8 °F 48.2 °F 68% 30.11 in 10.0 mi WSW 3.5 mph - N/A   Clear
9:35 AM 61.2 °F 48.4 °F 63% 30.11 in 10.0 mi WSW 4.6 mph - N/A   Clear
9:55 AM 61.9 °F 48.2 °F 61% 30.11 in 10.0 mi West 4.6 mph - N/A   Clear
10:15 AM 63.9 °F 48.4 °F 57% 30.12 in 10.0 mi WSW 8.1 mph - N/A   Clear
10:35 AM 64.6 °F 48.0 °F 55% 30.11 in 10.0 mi WNW 8.1 mph - N/A   Clear
10:55 AM 65.7 °F 48.4 °F 54% 30.11 in 10.0 mi West 6.9 mph - N/A   Clear
11:15 AM 66.2 °F 48.0 °F 52% 30.10 in 10.0 mi NW 4.6 mph - N/A   Clear
11:35 AM 68.7 °F 47.3 °F 46% 30.10 in 10.0 mi West 8.1 mph - N/A   Clear
11:55 AM 69.4 °F 47.8 °F 46% 30.09 in 10.0 mi West 4.6 mph - N/A   Clear
12:15 PM 70.2 °F 46.2 °F 42% 30.09 in 10.0 mi West 5.8 mph - N/A   Clear
12:35 PM 70.9 °F 46.2 °F 41% 30.08 in 10.0 mi West 8.1 mph - N/A   Clear
12:55 PM 72.3 °F 45.9 °F 39% 30.08 in 10.0 mi WSW 8.1 mph - N/A   Clear
1:15 PM 71.1 °F 45.0 °F 39% 30.07 in 10.0 mi West 5.8 mph - N/A   Clear
1:35 PM 72.0 °F 47.1 °F 41% 30.07 in 10.0 mi West 5.8 mph - N/A   Clear
1:55 PM 73.9 °F 46.4 °F 37% 30.06 in 10.0 mi West 6.9 mph - N/A   Clear
2:15 PM 74.3 °F 45.9 °F 36% 30.06 in 10.0 mi West 6.9 mph - N/A   Clear
2:35 PM 73.8 °F 47.3 °F 39% 30.05 in 10.0 mi SW 9.2 mph - N/A   Clear
2:55 PM 72.9 °F 48.4 °F 42% 30.04 in 10.0 mi WSW 10.4 mph - N/A   Clear
3:15 PM 72.9 °F 46.8 °F 39% 30.04 in 10.0 mi West 6.9 mph - N/A   Clear
3:35 PM 73.9 °F 46.4 °F 37% 30.04 in 10.0 mi WSW 6.9 mph - N/A   Clear
3:55 PM 74.1 °F 48.0 °F 40% 30.03 in 10.0 mi West 8.1 mph - N/A   Clear
4:15 PM 71.6 °F 48.7 °F 44% 30.04 in 10.0 mi West 6.9 mph - N/A   Clear
4:35 PM 73.4 °F 49.1 °F 42% 30.04 in 10.0 mi SW 6.9 mph - N/A   Clear
4:55 PM 74.3 °F 49.1 °F 41% 30.03 in 10.0 mi West 9.2 mph - N/A   Clear
5:15 PM 72.3 °F 47.1 °F 41% 30.03 in 10.0 mi West 5.8 mph - N/A   Clear
5:35 PM 72.9 °F 47.1 °F 40% 30.03 in 10.0 mi West 8.1 mph - N/A   Clear
5:55 PM 71.8 °F 49.1 °F 45% 30.02 in 10.0 mi West 4.6 mph - N/A   Clear
6:15 PM 72.3 °F 50.4 °F 46% 30.02 in 10.0 mi West 4.6 mph - N/A   Clear
6:35 PM 72.1 °F 50.9 °F 47% 30.02 in 10.0 mi West 4.6 mph - N/A   Clear
6:55 PM 70.9 °F 52.0 °F 51% 30.03 in 10.0 mi WSW 3.5 mph - N/A   Clear
7:15 PM 68.2 °F 51.4 °F 55% 30.03 in 10.0 mi WNW 3.5 mph - N/A   Clear
7:35 PM 66.9 °F 51.1 °F 57% 30.03 in 10.0 mi West 3.5 mph - N/A   Clear
7:55 PM 64.9 °F 50.4 °F 59% 30.03 in 10.0 mi SW 3.5 mph - N/A   Clear
8:15 PM 60.1 °F 48.7 °F 66% 30.04 in 10.0 mi SW 4.6 mph - N/A   Clear
8:35 PM 60.4 °F 49.6 °F 68% 30.04 in 10.0 mi SW 4.6 mph - N/A   Clear
8:55 PM 60.6 °F 50.0 °F 68% 30.04 in 10.0 mi SW 4.6 mph - N/A   Clear
9:15 PM 58.6 °F 51.1 °F 76% 30.04 in 10.0 mi SW 3.5 mph - N/A   Clear
9:35 PM 57.9 °F 50.7 °F 77% 30.04 in 10.0 mi Calm Calm - N/A   Clear
9:55 PM 57.7 °F 50.4 °F 76% 30.04 in 10.0 mi Calm Calm - N/A   Clear
10:15 PM 57.6 °F 50.5 °F 77% 30.04 in 10.0 mi Calm Calm - N/A   Clear
10:35 PM 54.9 °F 48.6 °F 79% 30.04 in 10.0 mi Calm Calm - N/A   Clear
10:55 PM 56.3 °F 51.1 °F 83% 30.04 in 10.0 mi Calm Calm - N/A   Clear
11:15 PM 53.8 °F 49.1 °F 84% 30.04 in 10.0 mi Calm Calm - N/A   Clear
11:35 PM 54.3 °F 50.2 °F 86% 30.04 in 10.0 mi Calm Calm - N/A   Clear
11:55 PM 53.4 °F 49.1 °F 85% 30.04 in 10.0 mi Calm Calm - N/A   Clear